map of GLZ home
Great Circle Mapper logo
GLZ - Airport
Location
City:  Breda, Netherlands
Name:Gilze-Rijen AB
ICAO / IATA:EHGR / GLZ

Details
Type:Airport (Aerodrome, Airfield)
Use:Military
Latitude:5134'03"N (51.567389)
Longitude:455'55"E (4.931833)
Datum:WGS 1984
Elevation:49 ft (15 m)
Variation:0.8E (WMM2015 magnetic declination)
Runways:2
Longest:9118 × 148 ft (2779 × 45 m), paved

Time
Time Zone:UTC+1 (DST+2)
Local Time:

Weather
METAR:EHGR 172125Z AUTO 23005KT 9999 FEW008 BKN009 BKN022 11/10 Q1008 GRN
TAF:EHGR 171735Z 1718/1806 25008KT 6000 FEW004 OVC006
BECMG 1718/1720 BKN017
BECMG 1722/1724 3000 BR BKN004 PROB40
TEMPO 1800/1806 1200 BR BKN002 OVC003

Related Locations
Nearby:
Farthest:CHT: 11890 mi / 19135 km
Waitangi [Tuuta], Chatham Islands, NZ

Find:

   beyond  
but within

Other Information
Maps:
NOTAMs:
Links:
Sources:

  
flag of Netherlands   

Sectional Chart

Flight Planning
at skyvector.com

Satellite Image

Google Maps Satellite View

 

Copyright © 2004-2014 Karl L. Swartz. All rights reserved.
The Great Circle Mapper name and logo are trademarks of the Great Circle Mapper.
All other trademarks mentioned herein belong to their respective owners.
Please see credits for attibutions and further copyright information.

  Follow gcmap on Facebook Follow gcmap on Twitter

hCard Microformat

Geo Microformat